Weather in Khabotskoye

Russia / Tver Oblast     58°07′58″N   37°01′34″E
temp.,
°C
wind,
m/s
gust,
m/s
humid.,
%
clouds,
%
prec.,
mm/h
press.,
hPa
HPBL,
m
17 may, mon
mon1700:00+12wsw11910 0.0 101310
03:00+11sw22925 0.0 101415
06:00+13s128894 0.0 101554
09:00+17sse237180 0.0 1015389
12:00+21se345177 0.0 10151306
15:00+23se4549100 0.0 10141662
18:00+21e48645 0.0 1013713
21:00+16e411865 0.0 1013227
18 may, tue
tue1800:00+15ese4149338 1.1 1012324
03:00+15ese4119683 1.1 1011241
06:00+15ese41290100 0.0 1011293
09:00+21se6146643 0.0 1010598
12:00+25se713487 0.0 10101184
15:00+26sse713476 0.0 10091687
18:00+24se6125333 0.0 10091093
21:00+20se516615 0.0 1009520
19 may, wed
wed1900:00+18se5157114 0.0 1009462
03:00+17se4137780 0.0 1009361
06:00+17se413795 0.0 1009401
09:00+21sse611625 0.0 1009650
12:00+24sse68552 0.0 10091116
15:00+25sse694862 0.0 10091518
18:00+25sse5125618 0.0 10081435
21:00+21sse514685 0.0 1008525
20 may, thu
thu2000:00+15s2294100 0.8 101040
03:00+16ene1191100 1.3 100927
06:00+16e4792100 0.4 1009293
09:00+19e61278100 0.4 1008616
12:00+24se7115522 0.0 10061499
15:00+22se81471100 1.6 10041609
18:00+19sse815835 2.9 10041330
21:00+15sse71392100 3.2 1004824
21 may, fri
fri2100:00+13sse6129488 0.6 1004583
03:00+12s61192100 0.8 1004799
06:00+11ssw61194100 0.4 1005807
09:00+10ssw61296100 1.2 1008839
12:00+11sw6119066 0.4 1011966
15:00+15wsw5964100 1.0 10131479
18:00+16sw4865100 0.2 10141173
21:00+12s3677100 0.2 1014122